DELTA 1 R/B, 3094

Orbit data source: Space-Track

DELTA 1 R/B, 3094 is space debris in LEO originally from a launch on Thu, 11 Jan 1968 UTC launched from the Air Force Western Test Range (AFWTR). Debris objects in space refer to the collection of defunct objects orbiting the Earth. Examples of debris include non-operational satellites, rocket bodies, and fragments generated from explosions, collisions, or faulty payload assembly.

Loading next visibility...
Identifier
3094, 1968-002B
Orbit
LEO
Country
Flag of USUS
Related business
Manufacturer
UTC
Mission
Spacecraft
Bus & Motor
FW4, Unknown motor
Mass
~40 kg wet, ~40 kg dry
Launch date (UTC)
1968-01-11 (58 years ago)
Launch vehicle
Unknown
Launch site
Air Force Western Test Range (AFWTR)
Object type
Payload
Rocket body
Debris
Shape & HBR
Unknown
Radar Cross Section
Medium (>0.1 m² and <1 m²)

Expand to show TLE details & history
Last TLE update: 9 hours ago

TLE from 9 hours ago
0 DELTA 1 R/B
1 03094U 68002B   25346.89544394 -.00000004  00000-0  23742-3 0  9994
2 03094 105.7991 234.5993 0314069 349.4093  72.4022 12.85272784716029
Epoch: 2025-12-12T21:29Z
TLE epoch observation values (Epoch: 2025-12-12T21:29:26.356Z)
Latitude
61.03047°
Longitude
159.84291°
Altitude
1,264.284 km
Speed
7.26 km/s
True Right ascension
13h 36m 07s
True Declination
60° 53' 39"
Sunlit
Object was in daylight at epoch
Visualization orbit readout
Latitude
Unknown
Longitude
Unknown
Altitude
Unknown
Speed
Unknown
Apparent Right ascension
Unknown
Apparent Declination
Unknown
Sunlit
N/A
Visualization observer readout
Local Sidereal Time
05:21:53
Azimuth
Unknown
Elevation
Unknown
Doppler factor
Unknown
Orbital elements
Apogee altitude
1,559.836 km
Perigee altitude
1,076.405 km
Semi-major axis
7,696.257 km
Eccentricity
0.03141
Inclination
105.7991°
RAAN
234.5993°
Arg. of periapsis
349.4093°
True anomaly
75.8718°
Mean anomaly
72.4022°
Eccentric anomaly
74.13312°
Mean motion
3.21458 °/min
Orbital period
111.99 mins
BSTAR
0.00023742
Loading maneuver chart data...
Computing Atmospheric mass density...
Loading historical data...
Loading historical data...
Loading historical data...
Loading historical data...
Loading historical data...
Loading historical data...
Loading historical data...

Documentation

Showing up to 5 results
|